[Date Prev][Date Next][Thread Prev][Thread Next] - [Date Index][Thread Index][Author Index]

2 Line ISS Keps 8-29



ISS
1 25544U 98067A   03241.22828020  .00017754  00000-0  20687-3 0  4135
2 25544  51.6340  12.4837 0007187 178.6222 242.7976 15.61731950272418



----
Via the sarex mailing list at AMSAT.ORG courtesy of AMSAT-NA.
To unsubscribe, send "unsubscribe sarex" to Majordomo@amsat.org



AMSAT Top AMSAT Home